EW8748 Mirabella Imbaccari IT current weather conditions

sailwx.info

Wind from 045 at 1 knots gusting 2

Air temperature 30.6° C
Dewpoint 15.4° C

Last reported at 2020-Aug-13 07:55 UTC.
Time now 2020-Aug-13 08:23 UTC

Location: N 37°20' E 014°27'.
View on Google Maps.

See reports from other nearby stations

  
Tides and Currents Weather Stations Pressure Air Temp Water Temp Dewpoint Dewpoint Depression Visibility Wind Speed Wind Dir Waves Ship Positions
date/time (UTC)wind fromknots sea level pressurealtimeterstation pressurevisibilityair tempwater tempwave heightnotes
2020-Aug-13 08:05 336 0 gusting 2 30.6
2020-Aug-13 08:00 026 1 gusting 2 30.6
2020-Aug-13 07:55 045 1 gusting 2 30.6
2020-Aug-13 07:40 161 30.0
2020-Aug-13 07:35 358 29.4
2020-Aug-13 07:25 228 28.9
2020-Aug-13 07:10 246 1 gusting 2 28.3
2020-Aug-13 06:55 246 1 gusting 2 27.2
2020-Aug-13 06:40 273 26.1
2020-Aug-13 06:35 273 0 gusting 2 26.1
2020-Aug-13 06:30 271 0 gusting 2 25.6
2020-Aug-13 06:25 271 0 gusting 2 25.6
2020-Aug-13 06:15 279 0 gusting 2 25.0
2020-Aug-13 06:05 267 1 gusting 2 25.0
2020-Aug-13 06:00 286 0 gusting 2 24.4
2020-Aug-13 05:55 294 0 gusting 2 24.4
2020-Aug-13 05:40 259 0 gusting 2 23.9
2020-Aug-13 05:35 263 0 gusting 2 23.9
2020-Aug-13 05:25 255 23.3
2020-Aug-13 05:15 255 23.3
2020-Aug-13 05:05 250 22.8
2020-Aug-13 05:00 250 22.8
2020-Aug-13 04:55 250 22.2
2020-Aug-13 04:45 250 22.2
2020-Aug-13 04:40 245 1 gusting 2 22.2
2020-Aug-13 04:30 258 0 gusting 2 22.8
2020-Aug-13 04:25 272 22.8
2020-Aug-13 04:20 272 22.8
2020-Aug-13 04:15 272 22.8
2020-Aug-13 04:05 272 22.8
2020-Aug-13 03:30 272 22.8
2020-Aug-13 03:25 272 22.8
2020-Aug-13 03:15 272 22.8
2020-Aug-13 03:05 273 1 gusting 2 22.8
2020-Aug-13 02:55 274 1 gusting 2 22.8
2020-Aug-13 02:45 265 1 gusting 2 22.8
2020-Aug-13 02:30 270 22.2
2020-Aug-13 02:25 269 22.2
2020-Aug-13 02:10 269 22.2
2020-Aug-13 02:05 270 22.2
2020-Aug-13 02:00 270 22.2
2020-Aug-13 01:50 260 0 gusting 2 22.2
2020-Aug-13 01:45 244 1 gusting 2 22.2
2020-Aug-13 01:35 265 0 gusting 2 22.2
2020-Aug-13 01:30 248 0 gusting 2 22.8
2020-Aug-13 01:20 267 22.8
2020-Aug-13 01:15 267 22.2
2020-Aug-13 01:05 267 22.2
2020-Aug-13 01:00 279 1 gusting 2 22.8
2020-Aug-13 00:55 251 0 gusting 2 23.3
2020-Aug-13 00:45 246 22.8
2020-Aug-13 00:35 246 22.8
2020-Aug-13 00:30 246 22.8
2020-Aug-13 00:25 246 23.3
2020-Aug-13 00:20 250 23.3
2020-Aug-13 00:15 293 23.9
2020-Aug-13 00:05 042 23.9
2020-Aug-12 23:55 028 23.9
2020-Aug-12 23:45 070 23.9
2020-Aug-12 23:35 070 23.9
2020-Aug-12 23:25 092 23.9
2020-Aug-12 23:15 172 24.4
2020-Aug-12 23:10 172 24.4
2020-Aug-12 23:05 108 24.4
2020-Aug-12 23:00 084 24.4
2020-Aug-12 22:50 144 24.4
2020-Aug-12 22:40 152 0 gusting 2 24.4
2020-Aug-12 22:35 138 1 gusting 2 24.4
2020-Aug-12 22:20 130 0 gusting 1 25.0
2020-Aug-12 22:00 074 25.0
2020-Aug-12 21:55 058 25.0
2020-Aug-12 21:45 035 25.0
2020-Aug-12 21:35 355 25.0
2020-Aug-12 21:20 069 25.6
2020-Aug-12 21:15 069 25.6
2020-Aug-12 21:10 069 25.6
2020-Aug-12 21:05 065 25.6
2020-Aug-12 21:00 076 25.6
2020-Aug-12 20:55 056 25.6
2020-Aug-12 20:35 038 25.6
2020-Aug-12 20:20 089 26.1
2020-Aug-12 20:15 076 26.1
2020-Aug-12 20:05 075 25.6
2020-Aug-12 20:00 078 0 gusting 1 25.6
2020-Aug-12 19:55 095 25.6
2020-Aug-12 19:45 092 25.6
2020-Aug-12 19:40 154 0 gusting 2 25.6
2020-Aug-12 19:35 149 0 gusting 1 25.6
2020-Aug-12 19:25 099 26.1
2020-Aug-12 19:15 097 0 gusting 2 26.7
2020-Aug-12 19:10 087 1 gusting 4 26.7
2020-Aug-12 19:00 097 26.7
2020-Aug-12 18:55 067 0 gusting 1 27.2
2020-Aug-12 18:40 051 27.2
2020-Aug-12 18:35 035 27.2
2020-Aug-12 18:25 331 27.2
2020-Aug-12 18:20 331 27.2
2020-Aug-12 18:15 329 27.2
2020-Aug-12 18:10 247 27.8
2020-Aug-12 18:05 316 0 gusting 1 27.8
2020-Aug-12 18:00 261 27.8
2020-Aug-12 17:50 243 27.8
2020-Aug-12 17:45 265 0 gusting 2 28.3
2020-Aug-12 17:40 287 0 gusting 5 28.3
2020-Aug-12 17:30 254 28.9
2020-Aug-12 17:25 195 1 gusting 5 28.9
2020-Aug-12 17:05 221 4 gusting 8 29.4
2020-Aug-12 16:40 254 3 gusting 7 30.0
2020-Aug-12 16:35 209 4 gusting 10 30.0
2020-Aug-12 16:30 240 5 gusting 12 30.0
2020-Aug-12 16:25 212 5 gusting 11 30.0
2020-Aug-12 16:15 219 2 gusting 7 30.6
2020-Aug-12 16:05 243 5 gusting 10 30.6
2020-Aug-12 16:00 211 3 gusting 10 31.1
2020-Aug-12 15:50 254 4 gusting 10 30.6
2020-Aug-12 15:45 225 6 gusting 10 30.6
2020-Aug-12 15:35 235 3 gusting 7 30.6
2020-Aug-12 15:20 253 5 gusting 10 31.7
2020-Aug-12 15:15 223 5 gusting 10 31.7
2020-Aug-12 14:50 286 4 gusting 6 32.2
2020-Aug-12 14:45 238 5 gusting 11 32.2
2020-Aug-12 14:35 246 6 gusting 13 31.7
2020-Aug-12 14:25 248 6 gusting 12 32.2
2020-Aug-12 14:15 242 4 gusting 11 31.7
2020-Aug-12 14:10 198 4 gusting 10 31.7
2020-Aug-12 14:05 210 5 gusting 10 31.7
2020-Aug-12 14:00 230 6 gusting 12 32.2
2020-Aug-12 13:55 252 5 gusting 11 32.2
2020-Aug-12 13:45 268 6 gusting 11 32.2
2020-Aug-12 13:40 193 4 gusting 11 31.7
2020-Aug-12 13:20 284 3 gusting 6 32.2
2020-Aug-12 13:00 300 2 gusting 7 31.7
2020-Aug-12 12:55 263 4 gusting 7 31.7
2020-Aug-12 12:45 225 6 gusting 10 31.7
2020-Aug-12 12:30 216 2 gusting 8 31.7
2020-Aug-12 12:15 220 2 gusting 8 31.7
2020-Aug-12 11:45 321 6 gusting 10 31.7
2020-Aug-12 11:30 130 3 gusting 6 30.6
2020-Aug-12 11:20 197 1 gusting 7 31.1
2020-Aug-12 11:15 233 6 gusting 10 31.1
2020-Aug-12 11:10 065 4 gusting 10 31.1
2020-Aug-12 11:00 287 0 gusting 6 31.1
2020-Aug-12 10:55 190 3 gusting 6 30.6
2020-Aug-12 10:45 228 2 gusting 6 30.6
2020-Aug-12 10:35 173 0 gusting 6 30.6
2020-Aug-12 10:20 205 2 gusting 6 30.6
2020-Aug-12 10:15 238 2 gusting 5 30.0
2020-Aug-12 10:05 254 3 gusting 8 30.6
2020-Aug-12 10:00 196 2 gusting 5 31.1
2020-Aug-12 09:50 30.6
2020-Aug-12 09:35 147 1 gusting 4 30.6
2020-Aug-12 09:25 30.6
2020-Aug-12 09:10 117 0 gusting 4 30.0
2020-Aug-12 09:05 087 30.0
2020-Aug-12 08:50 159 1 gusting 4 29.4
2020-Aug-12 08:40 246 1 gusting 4 28.9
2020-Aug-12 08:35 241 2 gusting 2 28.9
2020-Aug-12 08:25 195 0 gusting 2 28.3
2020-Aug-12 08:15 111 1 gusting 4 28.3
2020-Aug-12 08:10 134 1 gusting 4 28.3
2020-Aug-12 08:05 205 1 gusting 2 28.3
2020-Aug-12 07:55 164 0 gusting 2 28.3
2020-Aug-12 07:45 030 0 gusting 2 28.3
2020-Aug-12 07:40 123 0 gusting 2 28.3
2020-Aug-12 07:35 103 0 gusting 4 27.8
2020-Aug-12 07:25 086 0 gusting 2 27.8
2020-Aug-12 07:15 103 27.8
2020-Aug-12 07:05 099 27.2
2020-Aug-12 06:55 245 0 gusting 1 26.1
2020-Aug-12 06:45 243 0 gusting 1 25.6
2020-Aug-12 06:35 281 0 gusting 1 25.6
2020-Aug-12 06:25 261 0 gusting 2 25.0
2020-Aug-12 06:15 246 1 gusting 2 24.4
2020-Aug-12 06:05 259 0 gusting 1 23.9
2020-Aug-12 05:55 259 0 gusting 1 23.9
2020-Aug-12 05:45 252 23.9
2020-Aug-12 05:35 252 23.3
2020-Aug-12 05:25 254 22.8
2020-Aug-12 05:00 254 22.8
2020-Aug-12 04:55 253 22.2
2020-Aug-12 04:45 253 21.7
2020-Aug-12 04:35 254 21.1
2020-Aug-12 04:25 254 21.1
2020-Aug-12 04:10 252 21.1
2020-Aug-12 04:05 284 21.1
2020-Aug-12 03:50 265 21.7
2020-Aug-12 03:45 265 21.7
2020-Aug-12 03:35 265 21.7
2020-Aug-12 03:25 265 21.7
2020-Aug-12 03:15 265 21.7
2020-Aug-12 03:00 326 21.7
2020-Aug-12 02:55 21.7
2020-Aug-12 02:45 329 21.7
2020-Aug-12 02:35 326 21.7
2020-Aug-12 02:20 292 21.7
2020-Aug-12 02:15 271 21.7
2020-Aug-12 02:00 264 1 gusting 2 22.2
2020-Aug-12 01:55 263 1 gusting 2 22.2
2020-Aug-12 01:45 274 1 gusting 2 22.2
2020-Aug-12 01:35 292 1 gusting 2 22.2
2020-Aug-12 01:20 278 1 gusting 2 22.2
2020-Aug-12 01:15 283 1 gusting 2 22.2
2020-Aug-12 01:00 273 1 gusting 2 21.7
2020-Aug-12 00:45 265 1 gusting 4 22.2
2020-Aug-12 00:35 266 1 gusting 2 22.8
2020-Aug-12 00:25 275 1 gusting 2 22.2
2020-Aug-12 00:10 250 1 gusting 2 22.2
2020-Aug-12 00:05 288 0 gusting 2 22.2
2020-Aug-11 23:55 272 1 gusting 2 22.2
2020-Aug-11 23:40 291 0 gusting 2 22.2
2020-Aug-11 23:35 301 0 gusting 2 22.2
2020-Aug-11 23:15 246 0 gusting 2 22.2
2020-Aug-11 23:10 258 1 gusting 2 22.2
2020-Aug-11 23:05 264 0 gusting 1 22.2
2020-Aug-11 23:00 273 22.2
2020-Aug-11 22:55 275 22.2
2020-Aug-11 22:45 275 0 gusting 1 22.2
2020-Aug-11 22:25 281 1 gusting 2 22.2
2020-Aug-11 22:15 277 22.2
2020-Aug-11 22:05 276 22.2
2020-Aug-11 22:00 280 0 gusting 1 22.2
2020-Aug-11 21:55 265 0 gusting 2 22.2
2020-Aug-11 21:50 249 1 gusting 2 22.2
2020-Aug-11 21:45 259 1 gusting 2 22.2
2020-Aug-11 21:30 285 22.8
2020-Aug-11 21:25 284 0 gusting 1 22.8
2020-Aug-11 21:10 257 0 gusting 2 22.8
2020-Aug-11 21:05 267 0 gusting 2 22.8
2020-Aug-11 20:55 267 0 gusting 2 22.8
2020-Aug-11 20:40 276 23.3
2020-Aug-11 20:25 318 23.3
2020-Aug-11 20:10 318 23.3
2020-Aug-11 19:55 318 23.3
2020-Aug-11 19:45 23.3
2020-Aug-11 19:35 156 23.9
2020-Aug-11 19:30 304 23.9
2020-Aug-11 19:25 302 23.9
2020-Aug-11 19:20 302 23.9
2020-Aug-11 19:15 302 23.9
2020-Aug-11 19:05 175 24.4
2020-Aug-11 19:00 175 24.4
2020-Aug-11 18:50 188 24.4
2020-Aug-11 18:45 188 24.4
2020-Aug-11 18:35 078 25.0
2020-Aug-11 18:25 044 25.0
2020-Aug-11 18:20 048 25.0
2020-Aug-11 18:15 072 25.0
2020-Aug-11 18:00 028 25.0
2020-Aug-11 17:55 066 25.0
2020-Aug-11 17:40 090 0 gusting 2 25.0
2020-Aug-11 17:35 076 0 gusting 2 25.6
2020-Aug-11 17:30 149 25.6
2020-Aug-11 17:20 040 25.6
2020-Aug-11 17:10 178 1 gusting 4 25.0
2020-Aug-11 17:00 088 24.4
2020-Aug-11 16:50 355 4 gusting 6 24.4
2020-Aug-11 16:40 033 2 gusting 6 25.6
2020-Aug-11 16:30 159 0 gusting 2 25.6
2020-Aug-11 16:25 199 25.6
2020-Aug-11 16:15 095 25.6
2020-Aug-11 16:05 071 25.6
2020-Aug-11 16:00 015 3 gusting 5 25.6
2020-Aug-11 15:45 309 26.1
2020-Aug-11 15:35 297 0 gusting 5 26.1
2020-Aug-11 15:25 338 3 gusting 6 26.1
2020-Aug-11 15:05 018 4 gusting 7 26.1
2020-Aug-11 14:55 028 4 gusting 10 26.7
2020-Aug-11 14:45 057 5 gusting 10 27.8
2020-Aug-11 14:40 071 8 gusting 14 30.0
2020-Aug-11 14:35 329 2 gusting 6 31.1
2020-Aug-11 14:25 223 4 gusting 8 31.1
2020-Aug-11 14:10 240 6 gusting 13 30.0
2020-Aug-11 14:05 154 5 gusting 10 30.0
2020-Aug-11 13:55 254 7 gusting 13 30.6
2020-Aug-11 13:45 209 6 gusting 12 31.1
2020-Aug-11 13:35 249 7 gusting 13 30.6
2020-Aug-11 13:25 236 4 gusting 12 31.1
2020-Aug-11 13:05 211 6 gusting 10 31.1
2020-Aug-11 12:55 217 5 gusting 14 31.1
2020-Aug-11 12:25 238 6 gusting 12 30.6
2020-Aug-11 12:15 211 7 gusting 13 30.0
2020-Aug-11 12:10 190 7 gusting 13 30.6
2020-Aug-11 12:05 229 4 gusting 13 30.6
2020-Aug-11 11:55 197 5 gusting 11 30.6
2020-Aug-11 11:45 234 5 gusting 11 30.6
2020-Aug-11 11:30 221 5 gusting 10 30.6
2020-Aug-11 11:25 240 5 gusting 11 30.6
2020-Aug-11 11:15 138 0 gusting 10 30.6
2020-Aug-11 11:05 315 0 gusting 2 30.6
2020-Aug-11 10:55 095 30.6
2020-Aug-11 10:45 163 4 gusting 10 30.6
2020-Aug-11 10:40 195 1 gusting 5 30.0
2020-Aug-11 10:35 275 4 gusting 10 30.0
2020-Aug-11 10:25 296 0 gusting 5 30.0
2020-Aug-11 10:10 009 1 gusting 2 29.4
2020-Aug-11 10:05 229 1 gusting 4 29.4
2020-Aug-11 10:00 255 0 gusting 7 29.4
2020-Aug-11 09:55 250 2 gusting 7 29.4
2020-Aug-11 09:45 257 0 gusting 6 28.9
2020-Aug-11 09:35 316 1 gusting 6 28.9
2020-Aug-11 09:25 203 4 gusting 6 28.9
2020-Aug-11 09:10 182 0 gusting 2 28.9
2020-Aug-11 08:55 239 1 gusting 6 28.3
2020-Aug-11 08:45 270 4 gusting 6 28.3
2020-Aug-11 08:35 236 0 gusting 5 28.3
2020-Aug-11 08:15 259 1 gusting 6 27.8
2020-Aug-11 08:05 242 6 gusting 8 27.8
2020-Aug-11 08:00 227 5 gusting 7 27.8